Regional Weather Roundup
Issued by NWS

Home | Current Version | Previous Version | Text Only | Print | Product List | Glossary Off
Versions: 1 2 3 4 5 6 7 8 9 10 11 12 13 14 15 16 17 18 19 20 21 22 23 24 25 26 27 28 29 30 31 32 33 34 35 36 37 38 39 40 41 42 43 44 45 46 47 48 49 50

000
ASUS43 KOAX 241710
RWRNE

WEATHER ROUNDUP FOR NEBRASKA
NATIONAL WEATHER SERVICE OMAHA NE
1200 PM CDT THU MAY 24 2018

NOTES: SATELLITE DATA IS BEING USED TO AUGMENT CLOUD COVER ABOVE
       12000 FEET.
       "FAIR" INDICATES FEW OR NO CLOUDS BELOW 12,000 FEET WITH NO
       SIGNIFICANT WEATHER AND/OR OBSTRUCTIONS TO VISIBILITY.


NEZ001>004-019>022-054>056-241800-
NEBRASKA PANHANDLE

CITY           SKY/WX    TMP DP  RH WIND       PRES   REMARKS
SCOTTSBLUFF    SUNNY     76  51  41 W13       30.03F
ALLIANCE       SUNNY     78  46  32 W16       30.01F
CHADRON        SUNNY     77  53  43 SW15      29.97S
GORDON         FAIR      78  52  40 W13G21    29.98S
KIMBALL        SUNNY     75  43  30 W12       30.10S
SIDNEY         SUNNY     79  43  27 NW10      30.07R
$$

NEZ057>060-069>072-079>082-241800-
SOUTHWEST NEBRASKA

CITY           SKY/WX    TMP DP  RH WIND       PRES   REMARKS
NORTH PLATTE   MOSUNNY   77  63  61 SW7       29.98S
IMPERIAL       SUNNY     77  56  48 E5        29.99S
LEXINGTON      MOSUNNY   78  63  59 S13       29.99R
MCCOOK         MOSUNNY   77  60  55 SE7       29.97S
OGALLALA       MOSUNNY   72  61  67 E3        30.00R
$$

NEZ005>010-023>029-035>040-094-241800-
NORTH CENTRAL NEBRASKA

CITY           SKY/WX    TMP DP  RH WIND       PRES   REMARKS
VALENTINE      SUNNY     79  63  57 SW12      29.96R
AINSWORTH      MOSUNNY   76  64  65 S13G20    29.97R
BROKEN BOW     MOSUNNY   76  63  64 SE15G23   29.98S
O`NEILL        SUNNY     81  66  59 S18G24    29.95S
ORD            SUNNY     77  61  57 SE15G25   29.96S
THEDFORD       PTSUNNY   74  61  63 S5        29.99R
$$

NEZ041-046>049-061>064-073>077-083>087-241800-
SOUTH CENTRAL NEBRASKA

CITY           SKY/WX    TMP DP  RH WIND       PRES   REMARKS
GRAND ISLAND   SUNNY     81  62  52 S17G24    30.00S
AURORA         CLOUDY    82  58  44 S13G23    30.00R
HASTINGS       CLOUDY    81  61  50 S14G23    30.00F
HEBRON         SUNNY     85  59  41 S13       30.02F
HOLDREGE       MOSUNNY   79  60  51 S15G23    29.99S
KEARNEY        SUNNY     80  60  50 S15       29.99F
YORK           MOSUNNY   82  63  51 SE15      29.99F
$$

NEZ011>018-030>034-042>045-241800-
NORTHEAST NEBRASKA

CITY           SKY/WX    TMP DP  RH WIND       PRES   REMARKS
NORFOLK        SUNNY     81  64  56 S16       29.96S
ALBION         SUNNY     80  65  60 S15       29.98F
BLAIR          MOSUNNY   82  65  57 S10G16    30.02F
COLUMBUS       MOSUNNY   84  62  47 SE14      29.99F
FREMONT        MOSUNNY   84  63  49 SE14      30.01F
TEKAMAH        MOSUNNY   80  68  66 SE14      29.99F
WAYNE          SUNNY     81  67  63 S17       29.97F
$$

NEZ050>053-065>068-078-088>093-241800-
SOUTHEAST NEBRASKA

CITY           SKY/WX    TMP DP  RH WIND       PRES   REMARKS
LINCOLN        SUNNY     85  62  46 S12       30.01F
OMAHA EPPLEY   PTSUNNY   82  64  54 SE13      30.02F
BEATRICE       SUNNY     86  62  44 S8G17     30.02F
FALLS CITY     MOSUNNY   83  68  60 S13       30.04S
NEBRASKA CITY  SUNNY     84  66  55 S13       30.03F
PLATTSMOUTH    SUNNY     82  67  60 SE10      30.03F
$$

NEZ044-045-051>053-067-241800-
OMAHA AREA

CITY           SKY/WX    TMP DP  RH WIND       PRES   REMARKS
OMAHA EPPLEY   PTSUNNY   82  64  54 SE13      30.02F
BLAIR          MOSUNNY   82  65  57 S10G16    30.02F
FREMONT        MOSUNNY   84  63  49 SE14      30.01F
MILLARD        MOSUNNY   83  67  59 SE7       30.02F
OFFUTT AFB     MOSUNNY   82  67  60 SE9       30.02S
PLATTSMOUTH    SUNNY     82  67  60 SE10      30.03F
WAHOO          FAIR      84  60  43 SE14      30.00F
$$



USA.gov is the U.S. government's official web portal to all federal, state and local government web resources and services.